Location: Newark
(44.4156°N, 12.1972°E)
Time: 07:57:06
(UTC+00:00)

STARLINK-1090 - Pass Details

Date: 31 January 2020
Orbit: 348 x 351 km, 53.0° (Epoch: 23 February)

Event Time Altitude Azimuth Distance (km) Brightness Sun altitude
Rises 18:39:23 0° 292° (WNW) 2,161 7.8 -25.3°
Reaches altitude 10° 18:41:45 10° 273° (W) 1,314 6.6 -25.7°
Enters shadow 18:43:06 17° 248° (WSW) 991 5.7 -26.0°
